Погода в Орловке

Россия / Ставропольский край     43°59′24″N   43°46′13″E
темп.,
°C
ветер,
м/с
пор.,
м/с
влажн.,
%
обл.,
%
осадки,
мм/ч
давл.,
гПа
погр.,
м
12 апреля, пн
пн1200:00+8зсз228223 0.0 101712
03:00+7зсз358633 0.0 101777
06:00+8зсз4981100 0.0 1018253
09:00+13сз6764100 0.0 1019872
12:00+13сз6666100 0.0 10191203
15:00+11сз5674100 0.1 1021885
18:00+10зсз4777100 0.0 1022500
21:00+9сз3679100 0.0 1023348
13 апреля, вт
вт1300:00+9сз3580100 0.0 1022309
03:00+9сз258285 0.0 1022248
06:00+9ссз2384100 0.0 1023118
09:00+9сз2284100 0.1 1022265
12:00+10сз2284100 0.1 1022346
15:00+10зсз3482100 0.2 1021348
18:00+10зсз3686100 0.1 1021244
21:00+9зсз2488100 0.1 1021114
14 апреля, ср
ср1400:00+9зсз3690100 0.0 1018241
03:00+9сз4692100 0.1 1017345
06:00+8сз5987100 0.0 1017401
09:00+10зсз5977100 0.0 1017623
12:00+14сз6658100 0.0 10161256
15:00+12зсз6868100 0.0 1016513
18:00+12з476481 0.0 1016375
21:00+11сз3872100 0.0 1018305
15 апреля, чт
чт1500:00+9зюз2282100 0.0 101711
03:00+8юз118498 0.0 101711
06:00+8з11832 0.0 101711
09:00+14с11570 0.0 1016581
12:00+18св11430 0.0 10151321
15:00+20св21350 0.0 10141666
18:00+17св334441 0.0 101458
21:00+14в225095 0.0 101420
16 апреля, пт
пт1600:00+12ююв225550 0.0 101410
03:00+11в006089 0.0 101410
06:00+10сз346699 0.0 101559
09:00+11сз5975100 0.0 1017436
12:00+12сз6880100 0.0 1017580
15:00+14сз7771100 0.1 1018880
18:00+10зсз4791100 1.3 1019284
21:00+8з11875 1.7 101910